ASA437 KLAX-MMPR

Flight info

Callsign ASA437
Flight time 2h 31m
Altitude 37000
Route PNDAH2 OTAYY DCT TIJ UT4 LMM UJ3 MZT J141 OBRUG OBRUG1A
Aircraft B38M/M-SDE1FGHILORVWXY/HB1

Departure

Time 2026-05-07 12:03
Airport Los Angeles International Airport (KLAX)

Arrival

Time 2026-05-07 14:35
Airport Puerto Vallarta International Airport (MMPR)
Time Latitude Longitude Altitude Speed Heading
2026-05-07 11:29 33.94235 -118.40150 123 ft 0 kts 263°
2026-05-07 11:53 33.94235 -118.40148 128 ft 3 kts 263°
2026-05-07 11:53 33.94235 -118.40122 127 ft 4 kts 277°
2026-05-07 11:53 33.94229 -118.40106 128 ft 2 kts 297°
2026-05-07 11:53 33.94228 -118.40088 125 ft 1 kts 259°
2026-05-07 11:54 33.94221 -118.40102 123 ft 2 kts 195°
2026-05-07 11:54 33.94204 -118.40096 126 ft 4 kts 158°
2026-05-07 11:54 33.94181 -118.40090 125 ft 4 kts 173°
2026-05-07 11:54 33.94158 -118.40087 124 ft 2 kts 173°
2026-05-07 11:55 33.94147 -118.40085 126 ft 2 kts 174°
2026-05-07 11:55 33.94144 -118.40085 124 ft 0 kts 174°
2026-05-07 11:58 33.94130 -118.40083 126 ft 5 kts 174°
2026-05-07 11:58 33.94076 -118.40076 126 ft 10 kts 173°
2026-05-07 11:58 33.94002 -118.40062 126 ft 12 kts 171°
2026-05-07 11:58 33.93915 -118.40047 125 ft 12 kts 161°
2026-05-07 11:59 33.93883 -118.39959 126 ft 13 kts 87°
2026-05-07 11:59 33.93895 -118.39843 128 ft 15 kts 82°
2026-05-07 11:59 33.93908 -118.39709 128 ft 17 kts 84°
2026-05-07 11:59 33.93923 -118.39561 128 ft 19 kts 82°
2026-05-07 12:00 33.93939 -118.39401 127 ft 20 kts 83°
2026-05-07 12:00 33.93957 -118.39225 125 ft 22 kts 83°
2026-05-07 12:00 33.93977 -118.39037 128 ft 23 kts 83°
2026-05-07 12:00 33.93997 -118.38837 122 ft 25 kts 83°
2026-05-07 12:01 33.94018 -118.38632 128 ft 24 kts 83°
2026-05-07 12:01 33.94040 -118.38426 126 ft 26 kts 83°
2026-05-07 12:01 33.94060 -118.38224 128 ft 23 kts 83°
2026-05-07 12:01 33.94075 -118.38078 128 ft 9 kts 83°
2026-05-07 12:02 33.94060 -118.38010 126 ft 9 kts 150°
2026-05-07 12:02 33.93998 -118.37999 125 ft 7 kts 202°
2026-05-07 12:02 33.93983 -118.38055 128 ft 8 kts 263°
2026-05-07 12:02 33.93969 -118.38188 126 ft 40 kts 263°
2026-05-07 12:03 33.93904 -118.38815 128 ft 109 kts 263°
2026-05-07 12:03 33.93788 -118.39952 131 ft 162 kts 263°
2026-05-07 12:03 33.93648 -118.41360 570 ft 176 kts 263°
2026-05-07 12:03 33.93498 -118.42843 1237 ft 179 kts 263°
2026-05-07 12:04 33.93340 -118.44395 1722 ft 198 kts 263°
2026-05-07 12:04 33.92925 -118.46079 2024 ft 225 kts 237°
2026-05-07 12:04 33.91940 -118.47647 2504 ft 245 kts 232°
2026-05-07 12:04 33.90850 -118.49321 3031 ft 263 kts 231°
2026-05-07 12:05 33.89665 -118.51038 3801 ft 268 kts 231°
2026-05-07 12:05 33.88461 -118.52777 4607 ft 273 kts 232°
2026-05-07 12:05 33.87203 -118.54507 5388 ft 278 kts 222°
2026-05-07 12:05 33.86134 -118.55361 5921 ft 281 kts 204°
2026-05-07 12:06 33.84224 -118.55843 6693 ft 284 kts 177°
2026-05-07 12:06 33.82281 -118.55443 7447 ft 286 kts 166°
2026-05-07 12:06 33.80323 -118.54927 8222 ft 288 kts 166°
2026-05-07 12:06 33.78364 -118.54406 9036 ft 290 kts 165°
2026-05-07 12:07 33.76382 -118.53874 9853 ft 292 kts 164°
2026-05-07 12:07 33.74377 -118.53335 10434 ft 303 kts 164°
2026-05-07 12:07 33.72253 -118.52756 10743 ft 322 kts 162°
2026-05-07 12:07 33.70239 -118.51577 11181 ft 327 kts 138°
2026-05-07 12:08 33.68734 -118.49513 11724 ft 332 kts 118°
2026-05-07 12:08 33.67644 -118.47075 12466 ft 334 kts 116°
2026-05-07 12:08 33.66540 -118.44585 13173 ft 340 kts 116°
2026-05-07 12:08 33.65437 -118.42065 13916 ft 344 kts 115°
2026-05-07 12:09 33.64321 -118.39494 14579 ft 349 kts 115°
2026-05-07 12:09 33.63199 -118.36897 15285 ft 353 kts 115°
2026-05-07 12:09 33.62067 -118.34272 15994 ft 356 kts 114°
2026-05-07 12:09 33.60918 -118.31610 16645 ft 361 kts 114°
2026-05-07 12:10 33.59756 -118.28917 17288 ft 366 kts 114°
2026-05-07 12:10 33.58578 -118.26190 17927 ft 371 kts 114°
2026-05-07 12:10 33.57384 -118.23428 18524 ft 376 kts 114°
2026-05-07 12:10 33.56177 -118.20638 19097 ft 379 kts 114°
2026-05-07 12:11 33.54960 -118.17826 19665 ft 382 kts 114°
2026-05-07 12:11 33.53732 -118.14985 20212 ft 386 kts 114°
2026-05-07 12:11 33.52496 -118.12109 20744 ft 389 kts 114°
2026-05-07 12:11 33.51251 -118.09216 21281 ft 393 kts 114°
2026-05-07 12:12 33.49993 -118.06296 21822 ft 396 kts 114°
2026-05-07 12:12 33.48723 -118.03353 22393 ft 399 kts 114°
2026-05-07 12:12 33.47420 -118.00413 22897 ft 404 kts 118°
2026-05-07 12:12 33.45592 -117.97835 23453 ft 412 kts 135°
2026-05-07 12:13 33.43462 -117.95521 23876 ft 416 kts 134°
2026-05-07 12:13 33.41308 -117.93186 24298 ft 419 kts 135°
2026-05-07 12:13 33.39131 -117.90853 24750 ft 421 kts 135°
2026-05-07 12:13 33.36932 -117.88514 25168 ft 424 kts 135°
2026-05-07 12:14 33.34720 -117.86165 25585 ft 427 kts 135°
2026-05-07 12:14 33.32487 -117.83800 25994 ft 429 kts 135°
2026-05-07 12:14 33.30250 -117.81430 26399 ft 432 kts 135°
2026-05-07 12:14 33.27995 -117.79044 26797 ft 435 kts 135°
2026-05-07 12:15 33.25724 -117.76642 27190 ft 437 kts 135°
2026-05-07 12:15 33.23444 -117.74233 27574 ft 440 kts 135°
2026-05-07 12:15 33.21143 -117.71803 27962 ft 442 kts 135°
2026-05-07 12:15 33.18831 -117.69364 28312 ft 445 kts 135°
2026-05-07 12:16 33.16511 -117.66900 28687 ft 447 kts 134°
2026-05-07 12:16 33.14238 -117.64354 29042 ft 450 kts 133°
2026-05-07 12:16 33.11946 -117.61793 29403 ft 452 kts 133°
2026-05-07 12:16 33.09649 -117.59236 29761 ft 455 kts 133°
2026-05-07 12:17 33.07325 -117.56653 30093 ft 457 kts 133°
2026-05-07 12:17 33.04992 -117.54062 30383 ft 460 kts 134°
2026-05-07 12:17 33.02645 -117.51459 30663 ft 462 kts 133°
2026-05-07 12:17 33.00283 -117.48841 30912 ft 466 kts 133°
2026-05-07 12:18 32.97905 -117.46207 31203 ft 468 kts 133°
2026-05-07 12:18 32.95514 -117.43561 31477 ft 470 kts 133°
2026-05-07 12:18 32.93109 -117.40902 31757 ft 473 kts 133°
2026-05-07 12:18 32.90698 -117.38238 32015 ft 475 kts 133°
2026-05-07 12:19 32.88270 -117.35556 32283 ft 478 kts 133°
2026-05-07 12:19 32.85825 -117.32859 32536 ft 480 kts 133°
2026-05-07 12:19 32.83372 -117.30154 32806 ft 483 kts 133°
2026-05-07 12:19 32.80936 -117.27471 33107 ft 484 kts 133°
2026-05-07 12:20 32.78471 -117.24758 33451 ft 484 kts 133°
2026-05-07 12:20 32.75999 -117.22039 33815 ft 484 kts 133°
2026-05-07 12:20 32.73532 -117.19328 34152 ft 484 kts 133°
2026-05-07 12:20 32.71066 -117.16620 34460 ft 483 kts 133°
2026-05-07 12:21 32.68599 -117.13912 34780 ft 482 kts 133°
2026-05-07 12:21 32.66200 -117.11147 35080 ft 478 kts 127°
2026-05-07 12:21 32.64003 -117.08199 35395 ft 477 kts 128°
2026-05-07 12:21 32.61780 -117.05282 35677 ft 477 kts 128°
2026-05-07 12:22 32.59539 -117.02377 35951 ft 477 kts 128°
2026-05-07 12:22 32.57295 -116.99482 36231 ft 476 kts 128°
2026-05-07 12:22 32.55060 -116.96605 36514 ft 476 kts 128°
2026-05-07 12:22 32.52813 -116.93731 36776 ft 475 kts 129°
2026-05-07 12:23 32.50571 -116.90868 37021 ft 475 kts 129°
2026-05-07 12:23 32.48317 -116.87992 37126 ft 476 kts 129°
2026-05-07 12:23 32.46073 -116.85129 37119 ft 473 kts 128°
2026-05-07 12:24 32.41609 -116.79443 37093 ft 471 kts 128°
2026-05-07 12:24 32.37145 -116.73765 37105 ft 472 kts 128°
2026-05-07 12:25 32.32671 -116.68084 37094 ft 472 kts 128°
2026-05-07 12:25 32.28197 -116.62412 37098 ft 472 kts 128°
2026-05-07 12:26 32.23715 -116.56737 37097 ft 472 kts 128°
2026-05-07 12:26 32.19243 -116.51087 37090 ft 471 kts 128°
2026-05-07 12:27 32.14762 -116.45440 37103 ft 471 kts 128°
2026-05-07 12:27 32.10280 -116.39802 37107 ft 471 kts 128°
2026-05-07 12:28 32.05796 -116.34167 37111 ft 471 kts 128°
2026-05-07 12:28 32.01303 -116.28531 37111 ft 472 kts 128°
2026-05-07 12:29 31.96838 -116.22937 37123 ft 471 kts 128°
2026-05-07 12:29 31.92329 -116.17297 37111 ft 470 kts 128°
2026-05-07 12:30 31.87871 -116.11731 37103 ft 470 kts 128°
2026-05-07 12:30 31.83386 -116.06139 37117 ft 471 kts 128°
2026-05-07 12:31 31.78884 -116.00533 37100 ft 471 kts 128°
2026-05-07 12:31 31.74387 -115.94943 37122 ft 471 kts 128°
2026-05-07 12:32 31.69883 -115.89356 37111 ft 471 kts 127°
2026-05-07 12:32 31.65373 -115.83769 37098 ft 471 kts 128°
2026-05-07 12:33 31.58600 -115.75395 37088 ft 472 kts 128°
2026-05-07 12:33 31.54078 -115.69813 37098 ft 472 kts 128°
2026-05-07 12:34 31.49558 -115.64244 37097 ft 472 kts 127°
2026-05-07 12:34 31.45024 -115.58665 37090 ft 474 kts 128°
2026-05-07 12:35 31.40485 -115.53087 37082 ft 473 kts 128°
2026-05-07 12:35 31.35948 -115.47522 37076 ft 474 kts 128°
2026-05-07 12:36 31.31396 -115.41947 37063 ft 473 kts 128°
2026-05-07 12:36 31.26834 -115.36366 37033 ft 476 kts 128°
2026-05-07 12:37 31.22253 -115.30773 37062 ft 476 kts 129°
2026-05-07 12:37 31.17684 -115.25201 37026 ft 475 kts 129°
2026-05-07 12:38 31.13113 -115.19634 37025 ft 475 kts 129°
2026-05-07 12:38 31.08533 -115.14067 36993 ft 475 kts 129°
2026-05-07 12:39 31.03970 -115.08527 37010 ft 477 kts 129°
2026-05-07 12:39 30.99384 -115.02968 37004 ft 476 kts 129°
2026-05-07 12:40 30.94760 -114.97369 36996 ft 476 kts 130°
2026-05-07 12:40 30.90199 -114.91857 37002 ft 476 kts 130°
2026-05-07 12:41 30.85607 -114.86315 36999 ft 476 kts 130°
2026-05-07 12:41 30.81013 -114.80777 36999 ft 476 kts 130°
2026-05-07 12:42 30.76411 -114.75239 36990 ft 476 kts 130°
2026-05-07 12:42 30.71808 -114.69706 36990 ft 476 kts 130°
2026-05-07 12:43 30.67198 -114.64173 36989 ft 478 kts 132°
2026-05-07 12:43 30.62567 -114.58624 36980 ft 479 kts 132°
2026-05-07 12:44 30.57925 -114.53069 36983 ft 479 kts 132°
2026-05-07 12:44 30.53281 -114.47521 36976 ft 479 kts 132°
2026-05-07 12:45 30.48642 -114.41986 36974 ft 479 kts 133°
2026-05-07 12:45 30.43962 -114.36411 36989 ft 485 kts 134°
2026-05-07 12:46 30.39265 -114.30823 36979 ft 483 kts 134°
2026-05-07 12:46 30.34575 -114.25251 36977 ft 483 kts 134°
2026-05-07 12:47 30.29886 -114.19690 36976 ft 483 kts 134°
2026-05-07 12:47 30.25176 -114.14111 36973 ft 487 kts 135°
2026-05-07 12:48 30.20420 -114.08486 36974 ft 490 kts 135°
2026-05-07 12:48 30.15660 -114.02866 36978 ft 486 kts 135°
2026-05-07 12:49 30.10938 -113.97297 36981 ft 486 kts 135°
2026-05-07 12:49 30.06209 -113.91729 36963 ft 486 kts 136°
2026-05-07 12:50 30.01478 -113.86167 36975 ft 485 kts 136°
2026-05-07 12:50 29.96758 -113.80625 36976 ft 485 kts 136°
2026-05-07 12:51 29.92824 -113.76012 36979 ft 485 kts 136°
2026-05-07 12:51 29.87355 -113.69607 36981 ft 480 kts 137°
2026-05-07 12:52 29.82668 -113.64127 36962 ft 482 kts 139°
2026-05-07 12:52 29.78713 -113.59510 36974 ft 485 kts 139°
2026-05-07 12:53 29.73981 -113.53994 36980 ft 484 kts 139°
2026-05-07 12:53 29.69249 -113.48484 36978 ft 484 kts 139°
2026-05-07 12:54 29.64515 -113.42979 36981 ft 484 kts 139°
2026-05-07 12:54 29.59825 -113.37533 36977 ft 483 kts 140°
2026-05-07 12:55 29.55090 -113.32042 36981 ft 483 kts 140°
2026-05-07 12:55 29.50355 -113.26561 36985 ft 483 kts 140°
2026-05-07 12:56 29.45623 -113.21090 36982 ft 483 kts 140°
2026-05-07 12:56 29.40892 -113.15626 36949 ft 483 kts 140°
2026-05-07 12:57 29.36140 -113.10148 36983 ft 485 kts 141°
2026-05-07 12:57 29.31410 -113.04701 36987 ft 479 kts 141°
2026-05-07 12:58 29.26708 -112.99294 36990 ft 479 kts 141°
2026-05-07 12:58 29.22004 -112.93894 36989 ft 479 kts 141°
2026-05-07 12:59 29.17291 -112.88489 36969 ft 479 kts 142°
2026-05-07 12:59 29.12576 -112.83091 36988 ft 480 kts 142°
2026-05-07 13:00 29.07861 -112.77700 36991 ft 480 kts 142°
2026-05-07 13:00 29.03161 -112.72333 36987 ft 475 kts 142°
2026-05-07 13:01 28.98483 -112.66997 36991 ft 476 kts 142°
2026-05-07 13:01 28.93796 -112.61660 36975 ft 476 kts 143°
2026-05-07 13:02 28.89113 -112.56335 36985 ft 476 kts 143°
2026-05-07 13:02 28.84415 -112.50999 36988 ft 476 kts 143°
2026-05-07 13:03 28.79723 -112.45677 36969 ft 476 kts 143°
2026-05-07 13:03 28.75052 -112.40386 36983 ft 472 kts 144°
2026-05-07 13:04 28.70398 -112.35122 36984 ft 472 kts 144°
2026-05-07 13:04 28.65772 -112.29897 36984 ft 472 kts 144°
2026-05-07 13:05 28.61108 -112.24635 36984 ft 472 kts 144°
2026-05-07 13:05 28.56448 -112.19384 36984 ft 472 kts 144°
2026-05-07 13:06 28.51786 -112.14139 36941 ft 472 kts 145°
2026-05-07 13:06 28.47137 -112.08914 36992 ft 469 kts 145°
2026-05-07 13:07 28.42497 -112.03708 36980 ft 468 kts 146°
2026-05-07 13:07 28.37864 -111.98514 36983 ft 468 kts 146°
2026-05-07 13:08 28.33236 -111.93333 36986 ft 468 kts 146°
2026-05-07 13:08 28.28596 -111.88147 36940 ft 468 kts 146°
2026-05-07 13:09 28.23960 -111.82971 36980 ft 467 kts 146°
2026-05-07 13:09 28.19334 -111.77814 36963 ft 466 kts 147°
2026-05-07 13:10 28.14729 -111.72685 36983 ft 464 kts 147°
2026-05-07 13:10 28.10122 -111.67561 36985 ft 464 kts 147°
2026-05-07 13:11 28.05516 -111.62444 36949 ft 464 kts 147°
2026-05-07 13:11 28.00923 -111.57349 36979 ft 463 kts 147°
2026-05-07 13:12 27.96323 -111.52253 36984 ft 463 kts 147°
2026-05-07 13:12 27.91725 -111.47164 36979 ft 463 kts 147°
2026-05-07 13:13 27.87124 -111.42080 36979 ft 462 kts 147°
2026-05-07 13:13 27.82526 -111.37005 36979 ft 462 kts 147°
2026-05-07 13:14 27.77930 -111.31938 36974 ft 461 kts 148°
2026-05-07 13:14 27.73340 -111.26885 36974 ft 461 kts 148°
2026-05-07 13:15 27.68748 -111.21835 36980 ft 461 kts 148°
2026-05-07 13:15 27.64191 -111.16830 36975 ft 461 kts 148°
2026-05-07 13:16 27.59599 -111.11792 36967 ft 460 kts 148°
2026-05-07 13:16 27.55015 -111.06771 36968 ft 459 kts 148°
2026-05-07 13:17 27.50439 -111.01763 36976 ft 458 kts 148°
2026-05-07 13:17 27.45872 -110.96772 36974 ft 458 kts 148°
2026-05-07 13:18 27.41295 -110.91776 36972 ft 458 kts 148°
2026-05-07 13:18 27.36719 -110.86786 36971 ft 458 kts 148°
2026-05-07 13:19 27.32139 -110.81799 36961 ft 458 kts 148°
2026-05-07 13:19 27.27566 -110.76826 36969 ft 457 kts 148°
2026-05-07 13:20 27.23003 -110.71868 36973 ft 457 kts 148°
2026-05-07 13:20 27.18429 -110.66905 36974 ft 457 kts 148°
2026-05-07 13:21 27.13853 -110.61947 36974 ft 457 kts 148°
2026-05-07 13:21 27.09286 -110.57002 36942 ft 457 kts 148°
2026-05-07 13:22 27.04710 -110.52056 36974 ft 457 kts 148°
2026-05-07 13:22 27.00134 -110.47114 36959 ft 456 kts 148°
2026-05-07 13:23 26.95562 -110.42184 36972 ft 457 kts 148°
2026-05-07 13:23 26.90988 -110.37256 36973 ft 456 kts 148°
2026-05-07 13:24 26.86409 -110.32329 36974 ft 456 kts 148°
2026-05-07 13:24 26.81832 -110.27410 36974 ft 457 kts 148°
2026-05-07 13:25 26.77243 -110.22484 36975 ft 456 kts 148°
2026-05-07 13:25 26.72702 -110.17615 36977 ft 456 kts 148°
2026-05-07 13:26 26.68113 -110.12701 36953 ft 456 kts 148°
2026-05-07 13:26 26.63528 -110.07797 36974 ft 457 kts 148°
2026-05-07 13:27 26.58937 -110.02890 36947 ft 456 kts 148°
2026-05-07 13:27 26.54352 -109.97998 36967 ft 456 kts 148°
2026-05-07 13:28 26.49767 -109.93111 36972 ft 456 kts 148°
2026-05-07 13:28 26.45176 -109.88223 36971 ft 456 kts 148°
2026-05-07 13:29 26.40582 -109.83337 36969 ft 456 kts 148°
2026-05-07 13:29 26.35996 -109.78463 36945 ft 456 kts 148°
2026-05-07 13:30 26.31413 -109.73599 36970 ft 455 kts 148°
2026-05-07 13:30 26.26825 -109.68736 36971 ft 455 kts 148°
2026-05-07 13:31 26.22238 -109.63878 36969 ft 455 kts 148°
2026-05-07 13:31 26.17661 -109.59037 36967 ft 455 kts 148°
2026-05-07 13:32 26.13074 -109.54190 36966 ft 455 kts 148°
2026-05-07 13:32 26.08482 -109.49344 36956 ft 455 kts 148°
2026-05-07 13:33 26.03888 -109.44510 36949 ft 455 kts 148°
2026-05-07 13:33 25.99291 -109.39676 36968 ft 455 kts 148°
2026-05-07 13:34 25.92397 -109.32431 36966 ft 455 kts 148°
2026-05-07 13:35 25.87800 -109.27605 36970 ft 455 kts 148°
2026-05-07 13:35 25.83203 -109.22786 36951 ft 455 kts 148°
2026-05-07 13:36 25.78600 -109.17966 36965 ft 455 kts 148°
2026-05-07 13:36 25.73990 -109.13143 36965 ft 455 kts 148°
2026-05-07 13:37 25.69385 -109.08331 36954 ft 456 kts 148°
2026-05-07 13:37 25.64963 -109.03280 36958 ft 460 kts 145°
2026-05-07 13:38 25.60516 -108.98198 36955 ft 460 kts 145°
2026-05-07 13:38 25.56056 -108.93118 36962 ft 460 kts 145°
2026-05-07 13:39 25.51592 -108.88040 36956 ft 460 kts 145°
2026-05-07 13:39 25.47887 -108.83828 36953 ft 460 kts 145°
2026-05-07 13:40 25.43416 -108.78753 36955 ft 460 kts 145°
2026-05-07 13:40 25.38945 -108.73683 36954 ft 461 kts 145°
2026-05-07 13:41 25.34469 -108.68612 36952 ft 461 kts 145°
2026-05-07 13:41 25.29994 -108.63537 36956 ft 463 kts 145°
2026-05-07 13:42 25.25500 -108.58445 36952 ft 462 kts 145°
2026-05-07 13:42 25.21008 -108.53363 36951 ft 462 kts 145°
2026-05-07 13:43 25.16509 -108.48278 36948 ft 462 kts 145°
2026-05-07 13:43 25.12022 -108.43211 36952 ft 462 kts 145°
2026-05-07 13:44 25.07516 -108.38127 36914 ft 464 kts 145°
2026-05-07 13:44 25.02988 -108.33023 36955 ft 466 kts 145°
2026-05-07 13:45 24.98484 -108.27953 36946 ft 466 kts 145°
2026-05-07 13:45 24.93956 -108.22859 36949 ft 466 kts 145°
2026-05-07 13:46 24.89416 -108.17760 36949 ft 466 kts 145°
2026-05-07 13:46 24.84885 -108.12675 36947 ft 466 kts 145°
2026-05-07 13:47 24.80344 -108.07585 36925 ft 466 kts 145°
2026-05-07 13:47 24.75791 -108.02487 36947 ft 468 kts 145°
2026-05-07 13:48 24.71229 -107.97385 36946 ft 467 kts 145°
2026-05-07 13:48 24.66669 -107.92290 36946 ft 467 kts 145°
2026-05-07 13:49 24.62111 -107.87204 36939 ft 467 kts 145°
2026-05-07 13:49 24.57550 -107.82120 36941 ft 467 kts 145°
2026-05-07 13:50 24.52980 -107.77032 36931 ft 469 kts 145°
2026-05-07 13:50 24.48393 -107.71929 36934 ft 469 kts 145°
2026-05-07 13:51 24.43807 -107.66835 36937 ft 470 kts 145°
2026-05-07 13:51 24.39214 -107.61738 36943 ft 470 kts 145°
2026-05-07 13:52 24.34616 -107.56640 36940 ft 470 kts 145°
2026-05-07 13:52 24.30021 -107.51552 36932 ft 470 kts 145°
2026-05-07 13:53 24.25419 -107.46462 36935 ft 471 kts 144°
2026-05-07 13:53 24.20806 -107.41364 36937 ft 471 kts 144°
2026-05-07 13:54 24.16187 -107.36266 36936 ft 472 kts 144°
2026-05-07 13:54 24.11562 -107.31166 36933 ft 472 kts 144°
2026-05-07 13:55 24.06939 -107.26075 36934 ft 472 kts 144°
2026-05-07 13:55 24.02342 -107.21017 36931 ft 472 kts 144°
2026-05-07 13:56 23.97714 -107.15932 36929 ft 472 kts 144°
2026-05-07 13:56 23.93074 -107.10838 36931 ft 472 kts 144°
2026-05-07 13:57 23.88438 -107.05754 36927 ft 472 kts 144°
2026-05-07 13:57 23.83800 -107.00674 36938 ft 473 kts 144°
2026-05-07 13:58 23.79159 -106.95596 36935 ft 472 kts 144°
2026-05-07 13:58 23.74515 -106.90519 36937 ft 472 kts 144°
2026-05-07 13:59 23.69875 -106.85453 36930 ft 472 kts 144°
2026-05-07 13:59 23.65228 -106.80383 36930 ft 472 kts 144°
2026-05-07 14:00 23.60579 -106.75317 36927 ft 472 kts 144°
2026-05-07 14:00 23.55972 -106.70301 36935 ft 472 kts 144°
2026-05-07 14:01 23.51294 -106.65217 36933 ft 472 kts 144°
2026-05-07 14:01 23.46671 -106.60200 36908 ft 472 kts 144°
2026-05-07 14:02 23.42016 -106.55153 36934 ft 472 kts 144°
2026-05-07 14:02 23.37370 -106.50121 36932 ft 472 kts 144°
2026-05-07 14:03 23.32718 -106.45087 36934 ft 472 kts 144°
2026-05-07 14:03 23.28060 -106.40052 36931 ft 472 kts 144°
2026-05-07 14:04 23.23404 -106.35024 36934 ft 472 kts 144°
2026-05-07 14:04 23.18744 -106.29996 36922 ft 473 kts 143°
2026-05-07 14:04 23.16270 -106.27717 36916 ft 457 kts 157°
2026-05-07 14:05 23.13479 -106.26219 36957 ft 444 kts 165°
2026-05-07 14:05 23.07759 -106.23616 36941 ft 445 kts 166°
2026-05-07 14:06 23.02010 -106.21126 36939 ft 445 kts 167°
2026-05-07 14:06 22.96260 -106.18678 36938 ft 444 kts 167°
2026-05-07 14:07 22.90502 -106.16233 36911 ft 444 kts 166°
2026-05-07 14:07 22.84742 -106.13790 36927 ft 445 kts 166°
2026-05-07 14:08 22.78977 -106.11347 36927 ft 445 kts 166°
2026-05-07 14:08 22.73216 -106.08908 36928 ft 445 kts 166°
2026-05-07 14:09 22.67449 -106.06470 36690 ft 444 kts 166°
2026-05-07 14:09 22.64569 -106.05254 36438 ft 444 kts 166°
2026-05-07 14:09 22.61696 -106.04041 36210 ft 444 kts 166°
2026-05-07 14:09 22.58812 -106.02824 35961 ft 445 kts 166°
2026-05-07 14:10 22.55927 -106.01607 35722 ft 446 kts 166°
2026-05-07 14:10 22.53034 -106.00387 35484 ft 446 kts 166°
2026-05-07 14:10 22.50148 -105.99171 35253 ft 447 kts 166°
2026-05-07 14:10 22.47241 -105.97947 35031 ft 449 kts 166°
2026-05-07 14:11 22.44332 -105.96722 34800 ft 449 kts 166°
2026-05-07 14:11 22.41414 -105.95494 34580 ft 450 kts 166°
2026-05-07 14:11 22.38498 -105.94267 34361 ft 450 kts 166°
2026-05-07 14:11 22.35575 -105.93039 34147 ft 451 kts 166°
2026-05-07 14:12 22.32656 -105.91812 33929 ft 451 kts 166°
2026-05-07 14:12 22.29724 -105.90580 33665 ft 452 kts 165°
2026-05-07 14:12 22.26800 -105.89352 33423 ft 453 kts 165°
2026-05-07 14:12 22.23858 -105.88117 33178 ft 454 kts 165°
2026-05-07 14:13 22.20927 -105.86887 32814 ft 449 kts 165°
2026-05-07 14:13 22.18002 -105.85660 31897 ft 453 kts 165°
2026-05-07 14:13 22.15045 -105.84421 30952 ft 458 kts 164°
2026-05-07 14:13 22.12073 -105.83175 30273 ft 457 kts 163°
2026-05-07 14:14 22.09133 -105.81944 29707 ft 451 kts 163°
2026-05-07 14:14 22.06219 -105.80723 29059 ft 447 kts 163°
2026-05-07 14:14 22.03343 -105.79519 28516 ft 442 kts 163°
2026-05-07 14:14 22.00494 -105.78327 27949 ft 436 kts 163°
2026-05-07 14:15 21.97716 -105.77164 27406 ft 432 kts 163°
2026-05-07 14:15 21.94928 -105.75998 26862 ft 428 kts 163°
2026-05-07 14:15 21.92162 -105.74842 26316 ft 425 kts 163°
2026-05-07 14:15 21.89417 -105.73694 25777 ft 422 kts 163°
2026-05-07 14:16 21.86688 -105.72554 25236 ft 419 kts 163°
2026-05-07 14:16 21.83984 -105.71425 24717 ft 416 kts 163°
2026-05-07 14:16 21.81299 -105.70305 24186 ft 414 kts 162°
2026-05-07 14:16 21.78614 -105.69208 23644 ft 411 kts 166°
2026-05-07 14:17 21.75840 -105.68574 22920 ft 408 kts 173°
2026-05-07 14:17 21.73057 -105.68025 22367 ft 404 kts 173°
2026-05-07 14:17 21.70300 -105.67476 21842 ft 400 kts 173°
2026-05-07 14:17 21.67575 -105.66934 21311 ft 397 kts 172°
2026-05-07 14:18 21.64870 -105.66396 20797 ft 394 kts 172°
2026-05-07 14:18 21.62181 -105.65862 20288 ft 391 kts 172°
2026-05-07 14:18 21.59515 -105.65332 19784 ft 389 kts 172°
2026-05-07 14:18 21.56868 -105.64807 19285 ft 387 kts 172°
2026-05-07 14:19 21.54227 -105.64283 18796 ft 385 kts 172°
2026-05-07 14:19 21.51602 -105.63762 18307 ft 383 kts 172°
2026-05-07 14:19 21.48992 -105.63244 17791 ft 381 kts 172°
2026-05-07 14:19 21.46396 -105.62730 17302 ft 378 kts 172°
2026-05-07 14:20 21.43820 -105.62219 16821 ft 375 kts 171°
2026-05-07 14:20 21.41270 -105.61714 16447 ft 369 kts 171°
2026-05-07 14:20 21.38763 -105.61218 16092 ft 364 kts 171°
2026-05-07 14:20 21.36291 -105.60729 15737 ft 359 kts 171°
2026-05-07 14:21 21.33850 -105.60246 15375 ft 355 kts 171°
2026-05-07 14:21 21.31428 -105.59767 15005 ft 354 kts 171°
2026-05-07 14:21 21.29001 -105.59287 14639 ft 354 kts 171°
2026-05-07 14:21 21.26585 -105.58809 14272 ft 353 kts 171°
2026-05-07 14:22 21.24178 -105.58334 13917 ft 351 kts 171°
2026-05-07 14:22 21.21778 -105.57860 13526 ft 349 kts 171°
2026-05-07 14:22 21.19424 -105.57395 13143 ft 347 kts 171°
2026-05-07 14:22 21.17033 -105.56923 12762 ft 343 kts 171°
2026-05-07 14:23 21.14699 -105.56463 12406 ft 339 kts 171°
2026-05-07 14:23 21.12424 -105.56014 12063 ft 335 kts 171°
2026-05-07 14:23 21.10117 -105.55559 11715 ft 331 kts 171°
2026-05-07 14:23 21.07867 -105.55116 11376 ft 328 kts 171°
2026-05-07 14:24 21.05662 -105.54680 11035 ft 325 kts 171°
2026-05-07 14:24 21.03449 -105.54245 10694 ft 322 kts 171°
2026-05-07 14:24 21.01261 -105.53814 10376 ft 319 kts 171°
2026-05-07 14:24 20.99085 -105.53386 10041 ft 317 kts 171°
2026-05-07 14:25 20.96925 -105.52961 9704 ft 314 kts 171°
2026-05-07 14:25 20.94786 -105.52539 9348 ft 312 kts 170°
2026-05-07 14:25 20.92660 -105.52121 9014 ft 309 kts 170°
2026-05-07 14:25 20.90555 -105.51707 8698 ft 306 kts 170°
2026-05-07 14:26 20.88469 -105.51297 8389 ft 303 kts 170°
2026-05-07 14:26 20.86408 -105.50892 8080 ft 299 kts 170°
2026-05-07 14:26 20.84373 -105.50491 7775 ft 296 kts 170°
2026-05-07 14:26 20.82356 -105.50096 7472 ft 293 kts 170°
2026-05-07 14:27 20.80356 -105.49703 7175 ft 291 kts 169°
2026-05-07 14:27 20.78376 -105.49313 6870 ft 288 kts 169°
2026-05-07 14:27 20.76420 -105.48930 6578 ft 282 kts 169°
2026-05-07 14:27 20.74509 -105.48555 6289 ft 277 kts 169°
2026-05-07 14:28 20.72631 -105.48186 5970 ft 271 kts 169°
2026-05-07 14:28 20.70786 -105.47824 5573 ft 270 kts 169°
2026-05-07 14:28 20.69563 -105.47585 5297 ft 269 kts 169°
2026-05-07 14:28 20.67737 -105.47226 4931 ft 262 kts 168°
2026-05-07 14:29 20.65980 -105.46882 4548 ft 252 kts 168°
2026-05-07 14:29 20.64283 -105.46550 4195 ft 244 kts 169°
2026-05-07 14:29 20.62673 -105.46115 3895 ft 235 kts 152°
2026-05-07 14:29 20.61406 -105.45095 3667 ft 224 kts 137°
2026-05-07 14:30 20.60270 -105.44009 3480 ft 214 kts 136°
2026-05-07 14:30 20.59184 -105.42961 3301 ft 209 kts 136°
2026-05-07 14:30 20.58112 -105.41919 3131 ft 208 kts 136°
2026-05-07 14:30 20.57150 -105.40799 2929 ft 202 kts 117°
2026-05-07 14:31 20.56836 -105.39394 2707 ft 192 kts 86°
2026-05-07 14:31 20.57167 -105.38061 2502 ft 183 kts 62°
2026-05-07 14:31 20.57887 -105.36976 2339 ft 177 kts 48°
2026-05-07 14:31 20.58730 -105.36024 2199 ft 177 kts 46°
2026-05-07 14:32 20.59576 -105.35071 2053 ft 177 kts 47°
2026-05-07 14:32 20.60409 -105.34120 1881 ft 170 kts 47°
2026-05-07 14:32 20.61202 -105.33213 1694 ft 164 kts 47°
2026-05-07 14:32 20.61975 -105.32329 1490 ft 163 kts 47°
2026-05-07 14:33 20.62726 -105.31469 1322 ft 152 kts 46°
2026-05-07 14:33 20.63435 -105.30657 1114 ft 147 kts 46°
2026-05-07 14:33 20.64129 -105.29864 917 ft 146 kts 46°
2026-05-07 14:33 20.64820 -105.29072 717 ft 145 kts 47°
2026-05-07 14:34 20.65505 -105.28289 501 ft 144 kts 47°
2026-05-07 14:34 20.66185 -105.27510 311 ft 142 kts 48°
2026-05-07 14:34 20.66855 -105.26738 120 ft 141 kts 48°
2026-05-07 14:34 20.67501 -105.25994 32 ft 125 kts 47°
2026-05-07 14:35 20.68003 -105.25424 33 ft 84 kts 47°
2026-05-07 14:35 20.68322 -105.25061 30 ft 44 kts 47°
2026-05-07 14:35 20.68414 -105.24907 29 ft 19 kts 72°
2026-05-07 14:35 20.68446 -105.24765 31 ft 18 kts 78°
2026-05-07 14:36 20.68462 -105.24667 31 ft 12 kts 94°
2026-05-07 14:36 20.68397 -105.24647 31 ft 12 kts 195°
2026-05-07 14:36 20.68307 -105.24675 31 ft 15 kts 197°
2026-05-07 14:36 20.68214 -105.24702 31 ft 11 kts 180°
2026-05-07 14:37 20.68156 -105.24658 31 ft 9 kts 136°
2026-05-07 14:37 20.68086 -105.24609 31 ft 2 kts 220°
2026-05-07 14:37 20.68069 -105.24629 31 ft 5 kts 226°
2026-05-07 14:38 20.68050 -105.24650 31 ft 1 kts 227°